カタログに戻る

STARLINK-5240

運用中通信VLEO
NORAD 54187·PAYLOAD·🇺🇸 United States

打ち上げ Oct 28, 2022 から Vandenberg Space Force Base

Loading…

次のパス (今後24時間)

TLE

最新Source: CelesTrak SupGP

元期: Sep 15, 2026, 01:30 UTC

1 54187C 22141AG  26258.06298611 -.00044526  00000+0 -13155-2 0  2588
2 54187  53.1578 219.2756 0001310  91.3551  45.4955 15.34413334    11

AllMySatでSTARLINK-5240をリアルタイム追跡

Download on the App Store